sat.trackr.live / text

‹ back to catalog

ARSAT 2

NORAD 40941 · 2015-054B

PAYLOAD ACTIVE UNKNOWN

§ Identity

Operator
Country
ARGN
Launch date
2015-09-30
Launch site
FRGUI
Launch vehicle
Mass (kg)
RCS (m²)
81.41

Purposes: comms

External: N2YO · Heavens-Above · Gunter

§ Orbital elements

Epoch: 2026-05-25T03:02:38.776416Z

Period
1,436.10 min
Inclination
0.0499°
Eccentricity
0.0002276
Mean motion
1.00271595 rev/d
Perigee alt
35,777.1 km
Apogee alt
35,796.2 km
Semi-major
42,164.8 km
B*
0.0000e+0
RAAN
80.2522°
Arg perigee
329.9293°
Mean anomaly
157.1995°
Rev number
3,907

§ Raw data

ARSAT 21 40941U 15054B   26145.12683769 -.00000227  00000+0  00000+0 0  99932 40941   0.0499  80.2522 0002276 329.9293 157.1995  1.00271595 39071

JSON: /api/v1/satellites/40941 · /tle

For live sub-satellite position, see the globe view (requires WebGL).

§ Visibility from observer

Set your observer location to see the next 7 days of passes ≥ 10°. The values pass through the URL so the page stays shareable.

No JS? Fill the form by hand. The geolocation button needs JavaScript.